FW6002 Weather Reports


Display with metric or nautical units.
time (UTC)temp
F
wind
direction
speed
MPH
gust
MPH
rain 1hr
in
rain 24hr
in
rain mn
in
humidity
%
barometer
mb
20260502220558 75 50 0.0 2.0 0.00 0.00 0.00 42 1019.2
20260502220140 75 35 0.0 2.0 0.00 0.00 0.00 44 1019.3
20260502215555 75 36 0.0 2.0 0.00 0.00 0.00 43 1019.3
20260502215054 76 0 0.0 2.0 0.00 0.00 0.00 41 1019.3
20260502214557 76 0 0.0 2.0 0.00 0.00 0.00 48 1019.5
20260502214055 76 304 0.0 4.0 0.00 0.00 0.00 42 1019.5
20260502213554 77 0 0.0 4.0 0.00 0.00 0.00 44 1019.5
20260502213058 77 0 0.0 4.0 0.00 0.00 0.00 44 1019.6
20260502212555 76 0 0.0 4.0 0.00 0.00 0.00 41 1019.7
20260502212055 77 0 0.0 2.0 0.00 0.00 0.00 44 1019.7
20260502211556 76 0 0.0 2.0 0.00 0.00 0.00 41 1019.7
20260502211055 77 0 0.0 2.0 0.00 0.00 0.00 40 1019.8
20260502210554 78 0 0.0 2.0 0.00 0.00 0.00 43 1019.7
20260502210106 77 0 0.0 2.0 0.00 0.00 0.00 46 1019.8
20260502205554 76 0 0.0 2.0 0.00 0.00 0.00 44 1020.0
20260502205054 78 0 0.0 3.0 0.00 0.00 0.00 45 1020.2
20260502204606 77 0 0.0 4.0 0.00 0.00 0.00 42 1020.2
20260502204055 78 0 0.0 4.0 0.00 0.00 0.00 44 1020.3
20260502203555 77 73 0.0 3.0 0.00 0.00 0.00 44 1020.4
20260502203105 78 55 0.0 4.0 0.00 0.00 0.00 46 1020.3
20260502202555 76 32 0.0 4.0 0.00 0.00 0.00 44 1020.4
20260502202058 77 0 0.0 3.0 0.00 0.00 0.00 43 1020.3
20260502201558 76 0 0.0 2.0 0.00 0.00 0.00 44 1020.4
20260502201055 77 0 0.0 2.0 0.00 0.00 0.00 45 1020.4
20260502200559 76 61 0.0 2.0 0.00 0.00 0.00 45 1020.4
20260502200055 76 155 0.0 2.0 0.00 0.00 0.00 47 1020.5
20260502195554 76 12 0.0 3.0 0.00 0.00 0.00 46 1020.4
20260502195054 77 28 0.0 3.0 0.00 0.00 0.00 43 1020.6
20260502194558 77 64 0.0 4.0 0.00 0.00 0.00 45 1020.7
20260502194054 76 0 1.0 4.0 0.00 0.00 0.00 43 1020.6
20260502193554 77 177 0.0 4.0 0.00 0.00 0.00 48 1020.7
20260502193054 76 0 1.0 4.0 0.00 0.00 0.00 53 1020.9
20260502192557 76 78 1.0 4.0 0.00 0.00 0.00 47 1020.8
20260502192053 75 49 1.0 4.0 0.00 0.00 0.00 48 1020.8
20260502191616 75 0 1.0 4.0 0.00 0.00 0.00 51 1020.9
20260502191054 75 0 0.0 2.0 0.00 0.00 0.00 46 1020.9
20260502190554 76 0 0.0 2.0 0.00 0.00 0.00 47 1021.0
20260502190111 76 0 0.0 2.0 0.00 0.00 0.00 50 1021.1
20260502185553 76 0 0.0 2.0 0.00 0.00 0.00 47 1021.0
20260502185053 74 0 0.0 2.0 0.00 0.00 0.00 47 1021.1
20260502184557 76 161 0.0 2.0 0.00 0.00 0.00 46 1021.3
20260502184053 76 182 0.0 3.0 0.00 0.00 0.00 49 1021.4
20260502183557 76 0 0.0 3.0 0.00 0.00 0.00 51 1021.4
20260502183101 75 0 0.0 2.0 0.00 0.00 0.00 47 1021.6
20260502182558 76 26 0.0 2.0 0.00 0.00 0.00 47 1021.6
20260502182053 76 137 0.0 2.0 0.00 0.00 0.00 47 1021.6
20260502181605 75 0 0.0 2.0 0.00 0.00 0.00 50 1021.7
20260502181057 75 0 0.0 2.0 0.00 0.00 0.00 46 1021.8
20260502180557 76 0 0.0 3.0 0.00 0.00 0.00 50 1021.9
20260502180114 75 78 0.0 3.0 0.00 0.00 0.00 43 1022.0
20260502164056 71 67 0.0 3.0 0.00 0.00 0.00 56 1022.8
20260502163600 71 52 0.0 2.0 0.00 0.00 0.00 56 1022.8
20260502163108 71 44 0.0 4.0 0.00 0.00 0.00 64 1022.7
20260502162556 71 0 1.0 4.0 0.00 0.00 0.00 62 1022.7
20260502162055 71 65 0.0 3.0 0.00 0.00 0.00 63 1022.8
20260502161600 71 15 0.0 4.0 0.00 0.00 0.00 62 1022.7
20260502161054 70 115 0.0 4.0 0.00 0.00 0.00 64 1022.8
20260502160554 70 48 1.0 4.0 0.00 0.00 0.00 67 1022.8
20260502152054 66 0 0.0 3.0 0.00 0.00 0.00 74 1022.7
20260502151559 66 39 0.0 2.0 0.00 0.00 0.00 74 1022.7
20260502151054 66 0 0.0 2.0 0.00 0.00 0.00 76 1022.6
20260502150554 65 17 0.0 2.0 0.00 0.00 0.00 76 1022.7
20260502130554 51 0 0.0 2.0 0.00 0.01 0.00 91 1021.9
20260502130107 51 0 0.0 2.0 0.00 0.01 0.00 91 1021.9
20260502123556 49 0 0.0 1.0 0.00 0.01 0.00 90 1021.5
20260502123104 48 0 0.0 2.0 0.00 0.01 0.00 90 1021.4
20260502122553 48 0 0.0 2.0 0.00 0.01 0.00 89 1021.3
20260502122055 47 0 0.0 1.0 0.00 0.01 0.00 89 1021.3
20260502121558 47 0 0.0 1.0 0.00 0.01 0.00 89 1021.1
20260502121055 46 0 0.0 0.0 0.00 0.01 0.00 88 1021.1
20260502120553 46 0 0.0 0.0 0.00 0.01 0.00 88 1021.1
20260502115559 46 0 0.0 0.0 0.00 0.01 0.00 88 1021.1
20260502115054 46 0 0.0 0.0 0.00 0.01 0.00 88 1021.0
20260502114557 46 0 0.0 0.0 0.00 0.01 0.00 88 1020.9
20260502114054 46 0 0.0 0.0 0.00 0.01 0.00 88 1020.9
20260502113556 47 0 0.0 0.0 0.00 0.01 0.00 88 1020.8
20260502113057 47 0 0.0 0.0 0.00 0.01 0.00 88 1020.6
20260502112553 47 0 0.0 0.0 0.00 0.01 0.00 88 1020.6
20260502112053 47 0 0.0 0.0 0.00 0.01 0.00 88 1020.5
20260502111555 47 0 0.0 0.0 0.00 0.01 0.00 88 1020.4
20260502111056 47 0 0.0 0.0 0.00 0.01 0.00 88 1020.3
20260502110557 47 0 0.0 0.0 0.00 0.01 0.00 88 1020.3
20260502110055 47 0 0.0 0.0 0.00 0.01 0.00 88 1020.1
20260502105555 47 0 0.0 0.0 0.00 0.01 0.00 88 1020.1
20260502105057 47 0 0.0 0.0 0.00 0.01 0.00 88 1020.0
20260502104555 47 0 0.0 0.0 0.00 0.01 0.00 88 1020.0
20260502104054 47 0 0.0 0.0 0.00 0.01 0.00 88 1019.6
20260502103554 47 0 0.0 0.0 0.00 0.01 0.00 87 1019.7
20260502103054 48 0 0.0 0.0 0.00 0.01 0.00 87 1019.7
20260502102553 48 0 0.0 0.0 0.00 0.01 0.00 87 1019.7
20260502102051 48 0 0.0 0.0 0.00 0.01 0.00 87 1019.6
20260502101554 48 0 0.0 0.0 0.00 0.01 0.00 87 1019.5
20260502101057 48 0 0.0 0.0 0.00 0.01 0.00 87 1019.4
20260502100555 48 0 0.0 0.0 0.00 0.01 0.00 87 1019.5
20260502091056 48 0 0.0 0.0 0.00 0.01 0.00 87 1019.5
20260502090556 48 0 0.0 0.0 0.00 0.01 0.00 87 1019.4
20260502090104 48 0 0.0 0.0 0.00 0.01 0.00 87 1019.3
20260502071056 51 0 0.0 0.0 0.00 0.01 0.00 85 1019.4
20260502070557 51 0 0.0 0.0 0.00 0.01 0.00 85 1019.3
20260502070100 51 0 0.0 0.0 0.00 0.01 0.00 85 1019.3
20260502065556 51 0 0.0 0.0 0.00 0.01 0.00 85 1019.5
20260502065056 51 0 0.0 0.0 0.00 0.01 0.00 85 1019.5
20260502064642 51 0 0.0 0.0 0.00 0.01 0.00 85 1019.2
20260502064057 51 0 0.0 0.0 0.00 0.01 0.00 85 1019.5
20260502063559 51 0 0.0 0.0 0.00 0.01 0.00 85 1019.5
20260502063057 51 0 0.0 0.0 0.00 0.01 0.00 85 1019.5
20260502062556 51 0 0.0 0.0 0.00 0.01 0.00 85 1019.5
20260502062056 51 0 0.0 0.0 0.00 0.01 0.00 85 1019.4
20260502061554 51 0 0.0 0.0 0.00 0.01 0.00 84 1019.6
20260502061056 51 0 0.0 0.0 0.00 0.01 0.00 84 1019.4
20260502060556 51 0 0.0 0.0 0.00 0.01 0.00 84 1019.6
20260502060101 51 0 0.0 0.0 0.00 0.01 0.00 84 1019.5
20260502055558 51 0 0.0 0.0 0.00 0.01 0.00 84 1019.5
20260502055056 51 0 0.0 0.0 0.00 0.01 0.00 84 1019.5
20260502054557 51 0 0.0 0.0 0.00 0.01 0.00 84 1019.4
20260502054055 51 0 0.0 0.0 0.00 0.01 0.00 84 1019.4
20260502053552 52 0 0.0 0.0 0.00 0.01 0.00 83 1019.4
20260502053102 52 0 0.0 0.0 0.00 0.01 0.00 83 1019.6
20260502052558 52 0 0.0 0.0 0.00 0.01 0.00 83 1019.7
20260502052056 52 0 0.0 0.0 0.00 0.01 0.00 83 1019.7
20260502051601 52 0 0.0 0.0 0.00 0.01 0.00 83 1019.8
20260502051055 52 0 0.0 0.0 0.00 0.01 0.00 82 1019.6
20260502050557 53 0 0.0 0.0 0.00 0.01 0.00 82 1019.6
20260502050055 53 0 0.0 0.0 0.00 0.01 0.00 82 1019.6
20260502045559 53 0 0.0 0.0 0.00 0.01 0.01 82 1019.6
20260502045055 53 0 0.0 0.0 0.00 0.01 0.01 82 1019.5
20260502044557 53 0 0.0 0.0 0.00 0.01 0.01 81 1019.4
20260502044056 53 0 0.0 0.0 0.00 0.01 0.01 81 1019.3
20260502043552 54 0 0.0 0.0 0.00 0.01 0.01 81 1019.3
20260502043105 54 0 0.0 0.0 0.00 0.01 0.01 81 1019.3
20260502042556 54 0 0.0 0.0 0.00 0.01 0.01 81 1019.4
20260502042056 54 0 0.0 0.0 0.00 0.01 0.01 81 1019.4
20260502041555 54 0 0.0 0.0 0.00 0.01 0.01 80 1019.3
20260502041055 55 0 0.0 0.0 0.00 0.01 0.01 80 1019.2
20260502040558 55 0 0.0 0.0 0.00 0.01 0.01 80 1019.2
20260502040057 55 0 0.0 0.0 0.00 0.01 0.01 79 1019.2
20260502035555 55 0 0.0 0.0 0.00 0.01 0.01 79 1019.3
20260502035055 55 0 0.0 0.0 0.00 0.01 0.01 78 1019.1
20260502034555 55 0 0.0 0.0 0.00 0.01 0.01 77 1019.1
20260502034053 56 0 0.0 0.0 0.00 0.01 0.01 77 1019.1
20260502033555 56 0 0.0 0.0 0.00 0.01 0.01 77 1019.1
20260502033054 56 0 0.0 0.0 0.00 0.01 0.01 76 1019.1
20260502032556 56 0 0.0 0.0 0.00 0.01 0.01 76 1019.1
20260502032057 57 0 0.0 0.0 0.00 0.01 0.01 75 1018.8
20260502031559 57 0 0.0 0.0 0.00 0.01 0.01 75 1018.6
20260502031054 58 0 0.0 0.0 0.00 0.01 0.01 74 1018.7
20260502030556 58 0 0.0 0.0 0.00 0.01 0.01 74 1018.7
20260502030054 58 0 0.0 0.0 0.00 0.01 0.01 73 1018.8
20260502025555 59 0 0.0 0.0 0.00 0.01 0.01 73 1018.6
20260502025055 59 0 0.0 0.0 0.00 0.01 0.01 72 1018.7
20260502024557 59 0 0.0 0.0 0.00 0.01 0.01 72 1018.7
20260502024055 59 0 0.0 1.0 0.00 0.01 0.01 71 1018.7
20260502023555 59 0 0.0 1.0 0.00 0.01 0.01 70 1018.5
20260502023055 59 0 0.0 2.0 0.00 0.01 0.01 70 1018.4
20260502022553 59 0 0.0 2.0 0.00 0.01 0.01 70 1018.3
20260502022058 59 0 0.0 2.0 0.00 0.01 0.01 70 1018.5
20260502021552 59 169 0.0 2.0 0.00 0.01 0.01 70 1018.4
20260502021056 59 0 0.0 2.0 0.00 0.01 0.01 70 1018.3
20260502020556 60 0 0.0 3.0 0.00 0.01 0.01 71 1018.4
20260502020054 60 0 0.0 3.0 0.00 0.01 0.01 71 1018.3
20260502015556 60 0 0.0 3.0 0.00 0.01 0.01 71 1018.2
20260502015056 60 0 0.0 3.0 0.00 0.01 0.01 71 1018.0
20260502014600 60 0 0.0 2.0 0.00 0.01 0.01 71 1017.8
20260502014055 60 267 0.0 2.0 0.00 0.01 0.01 71 1017.9
20260502013555 60 265 0.0 2.0 0.00 0.01 0.01 71 1017.8
20260502013058 60 209 0.0 2.0 0.00 0.01 0.01 72 1017.8
20260502012555 60 0 0.0 1.0 0.00 0.01 0.01 71 1017.8
20260502012055 61 0 0.0 1.0 0.00 0.01 0.01 72 1017.6
20260502011556 61 0 0.0 2.0 0.00 0.01 0.01 71 1017.4
20260502011055 61 0 0.0 2.0 0.00 0.01 0.01 71 1017.2
20260502010555 61 132 0.0 3.0 0.00 0.01 0.01 71 1016.8
20260502005555 61 238 0.0 3.0 0.00 0.01 0.01 71 1016.8
20260502005055 61 193 0.0 3.0 0.00 0.01 0.01 72 1016.7
20260502004604 61 0 0.0 2.0 0.00 0.01 0.01 72 1016.6
20260502004059 61 0 0.0 2.0 0.00 0.01 0.01 73 1016.4
20260502003559 61 0 0.0 2.0 0.00 0.01 0.01 73 1016.3
20260502003106 61 0 0.0 1.0 0.00 0.01 0.01 72 1016.4
20260502002555 61 0 0.0 2.0 0.00 0.01 0.01 70 1016.3
20260502002058 62 0 0.0 2.0 0.00 0.01 0.01 70 1016.2
20260502001556 62 254 0.0 2.0 0.00 0.01 0.01 70 1016.1
20260502001059 62 209 0.0 3.0 0.00 0.01 0.01 71 1016.1
20260502000555 62 271 0.0 3.0 0.00 0.01 0.01 70 1016.1
20260502000108 62 218 0.0 2.0 0.00 0.01 0.01 72 1016.0
20260501235557 62 154 0.0 3.0 0.00 0.01 0.01 72 1015.8
20260501235055 62 0 0.0 3.0 0.00 0.01 0.01 73 1015.6
20260501234601 62 0 0.0 3.0 0.00 0.01 0.01 71 1015.7
20260501234055 62 0 0.0 2.0 0.00 0.01 0.01 72 1015.5
20260501233553 62 0 0.0 2.0 0.00 0.01 0.01 71 1015.4
20260501233103 62 0 0.0 2.0 0.00 0.01 0.01 72 1015.4
20260501232555 62 0 0.0 3.0 0.00 0.01 0.01 71 1015.3
20260501232052 62 0 0.0 3.0 0.00 0.01 0.01 70 1015.3
20260501231556 62 17 0.0 4.0 0.00 0.01 0.01 71 1015.2
20260501231052 62 0 0.0 4.0 0.00 0.01 0.01 71 1015.2
20260501230556 62 0 0.0 4.0 0.00 0.01 0.01 71 1015.0
20260501230055 62 315 0.0 1.0 0.00 0.01 0.01 74 1015.0
20260501225556 62 0 0.0 3.0 0.00 0.01 0.01 74 1015.1
20260501225055 62 0 0.0 3.0 0.00 0.01 0.01 74 1015.3
20260501224553 62 0 0.0 1.0 0.00 0.01 0.01 75 1015.3
20260501224055 62 0 0.0 1.0 0.00 0.01 0.01 75 1015.1
20260501223553 62 0 0.0 2.0 0.00 0.01 0.01 76 1015.0
20260501223100 62 0 0.0 2.0 0.00 0.01 0.01 77 1014.9
20260501222555 62 0 0.0 1.0 0.00 0.01 0.01 75 1014.9
20260501222055 62 0 0.0 2.0 0.00 0.01 0.01 74 1014.9
20260501221602 62 0 0.0 2.0 0.00 0.01 0.01 74 1015.1
20260501221056 62 0 0.0 1.0 0.00 0.01 0.01 75 1015.2